Scottsbluff, NE

6:35 PM MDT on October 19, 2017 (GMT -0600)
Heilig

Weather History for KBFF - May, 2014

Change the Weather History Date:

Monday, May 19, 2014

  Actual Average Record
Temperature  
Mean Temperature 64 °F 58 °F  
Max Temperature 77 °F 73 °F 97 °F (2009)
Min Temperature 50 °F 44 °F 29 °F (1915)
Degree Days  
Heating Degree Days 1 7  
Month to date heating degree days 253 196  
Since 1 July heating degree days 6613 6489  
Cooling Degree Days 0 1  
Month to date cooling degree days 0 8  
Year to date cooling degree days 0 10  
Growing Degree Days 14 (Base 50)    
Moisture  
Dew Point 48 °F    
Average Humidity 62    
Maximum Humidity 93    
Minimum Humidity 31    
Precipitation  
Precipitation 0.09 in 0.08 in 2.30 in (1988)
Month to date precipitation 3.37 1.35  
Year to date precipitation 6.44 5.19  
Snow  
Snow 0.00 in 0.00 in 5.80 in (1915)
Month to date snowfall 5.0 0.4  
Since 1 July snowfall 66.5 42.0  
Snow Depth 0.00 in    
Sea Level Pressure  
Sea Level Pressure 29.73 in    
Wind  
Wind Speed 9 mph (NNE)    
Max Wind Speed 23 mph    
Max Gust Speed 28 mph    
Visibility 10 miles    
Events Rain , Thunderstorm    
T = Trace of Precipitation, MM = Missing Value Source: NWS Daily Summary

Daily Weather History Graph

Daily Weather History Graph

Search for Another Location

Airport or City:

Trip Planner

Search our weather history database for the weather conditions in past years. The results will help you decide how hot, cold, wet, or windy it might be!

Date:

Astronomy

May. 19, 2014 Rise Set
Actual Time 5:30 AM MDT 8:11 PM MDT
Civil Twilight 4:58 AM MDT 8:44 PM MDT
Nautical Twilight 4:17 AM MDT 9:24 PM MDT
Astronomical Twilight 3:31 AM MDT 10:11 PM MDT
Moon No Moon Rise 10:32 AM MDT (5/19)
Length of Visible Light 15h 45m
Length of Day
14h 41m
Waning Gibbous, 70% of the Moon is Illuminated
May 19
Waning Gibbous
May 21
Last Quarter
May 28
New
Jun 5
First Quarter
Jun 12
Full

Hourly Weather History & Observations

Time (MDT) Temp. Dew Point Humidity Pressure Visibility Wind Dir Wind Speed Gust Speed Precip Events Conditions
12:53 AM 57.9 °F 51.1 °F 78% 29.52 in 10.0 mi SE 8.1 mph - N/A   Clear
1:53 AM 55.0 °F 51.1 °F 86% 29.55 in 10.0 mi North 10.4 mph - N/A   Clear
2:53 AM 54.0 °F 50.0 °F 86% 29.53 in 10.0 mi ENE 5.8 mph - N/A   Clear
3:53 AM 50.0 °F 48.0 °F 93% 29.57 in 10.0 mi North - - N/A   Clear
4:53 AM 51.1 °F 48.0 °F 89% 29.61 in 10.0 mi North - - N/A   Clear
5:53 AM 51.1 °F 46.9 °F 86% 29.66 in 10.0 mi WNW 9.2 mph - N/A   Clear
8:53 AM 63.0 °F 50.0 °F 63% 29.65 in 10.0 mi West 9.2 mph - N/A   Clear
9:53 AM 66.9 °F 50.0 °F 54% 29.64 in 10.0 mi WNW 10.4 mph - N/A   Clear
10:53 AM 70.0 °F 46.0 °F 42% 29.64 in 10.0 mi NW 9.2 mph - N/A   Clear
11:53 AM 73.4 °F 46.4 °F 38% 29.76 in 10.0 mi NW 11.5 mph - N/A   Clear
12:53 PM 75.0 °F 48.0 °F 38% 29.64 in 10.0 mi Variable 3.5 mph - N/A   Clear
1:53 PM 75.9 °F 43.0 °F 31% 29.65 in 10.0 mi North 5.8 mph 17.3 mph N/A   Clear
2:53 PM 73.9 °F 46.9 °F 38% 29.65 in 10.0 mi NE 12.7 mph - N/A   Mostly Cloudy
3:53 PM 73.0 °F 46.9 °F 39% 29.67 in 10.0 mi NNE 17.3 mph - 0.00 in   Scattered Clouds
4:53 PM 70.0 °F 43.0 °F 38% 29.68 in 10.0 mi NE 13.8 mph 23.0 mph N/A   Scattered Clouds
5:13 PM 70.0 °F 45.0 °F 41% 29.78 in 10.0 mi NE 15.0 mph - N/A Thunderstorm Scattered Clouds
5:31 PM 68.0 °F 43.0 °F 40% 29.78 in 10.0 mi NE 16.1 mph - N/A   Partly Cloudy
5:53 PM 68.0 °F 45.0 °F 43% 29.71 in 10.0 mi NE 13.8 mph - 0.00 in Rain , Thunderstorm Light Rain
6:02 PM 66.9 °F 45.0 °F 45% 29.79 in 10.0 mi NE 13.8 mph 19.6 mph 0.00 in Rain Light Rain
6:33 PM 64.9 °F 48.9 °F 56% 29.81 in 10.0 mi NE 10.4 mph - 0.00 in Rain , Thunderstorm Light Rain
6:53 PM 64.9 °F 48.0 °F 54% 29.73 in 10.0 mi NNE 8.1 mph - 0.00 in   Overcast
7:53 PM 62.1 °F 48.9 °F 62% 29.75 in 10.0 mi ESE 4.6 mph - 0.00 in Thunderstorm Mostly Cloudy
8:11 PM 62.1 °F 51.1 °F 67% 29.86 in 10.0 mi South 5.8 mph - N/A   Mostly Cloudy
8:53 PM 62.1 °F 46.9 °F 58% 29.76 in 10.0 mi NE 10.4 mph - 0.00 in   Mostly Cloudy
9:53 PM 57.9 °F 50.0 °F 75% 29.79 in 10.0 mi ESE 4.6 mph - 0.01 in   Mostly Cloudy
10:06 PM 57.0 °F 51.1 °F 81% 29.92 in 9.0 mi WNW 9.2 mph - N/A Thunderstorm Thunderstorm
10:27 PM 57.0 °F 50.0 °F 77% 29.90 in 10.0 mi NNE 13.8 mph - 0.03 in Rain , Thunderstorm Light Rain
10:38 PM 57.0 °F 53.1 °F 87% 29.91 in 10.0 mi NNE 5.8 mph - 0.03 in   Overcast
10:53 PM 57.0 °F 53.1 °F 87% 29.80 in 10.0 mi NE 9.2 mph - 0.03 in   Mostly Cloudy
11:35 PM 55.9 °F 51.1 °F 84% 29.94 in 10.0 mi South 4.6 mph - N/A Thunderstorm Thunderstorm
11:50 PM 55.4 °F 50.0 °F 82% 29.93 in 9.0 mi Calm Calm - 0.00 in Rain Light Rain
11:53 PM 55.9 °F 48.9 °F 77% 29.82 in 8.0 mi Calm Calm - 0.01 in Rain Rain